EW8665 Weather Reports


time (UTC)temp
C
wind
direction
speed
KPH
gust
KPH
rain 1hr
cm
rain 24hr
cm
rain mn
cm
humidity
%
barometer
mb
20260902094005 21 250 4.8 11.3 0.00 0.00 0.00 63 1023.2
20260902093505 21 246 6.4 11.3 0.00 0.00 0.00 63 1023.4
20260902093005 21 258 4.8 8.0 0.00 0.00 0.00 63 1023.4
20260902092505 20 264 4.8 6.4 0.00 0.00 0.00 63 1023.2
20260902092005 20 270 4.8 6.4 0.00 0.00 0.00 64 1023.3
20260902091505 20 275 4.8 6.4 0.00 0.00 0.00 65 1023.1
20260902090506 19 264 4.8 6.4 0.00 0.00 0.00 66 1023.3
20260902090005 19 251 3.2 9.7 0.00 0.00 0.00 68 1023.1
20260902085505 18 250 4.8 9.7 0.00 0.00 0.00 68 1023.2
20260902085005 18 246 4.8 8.0 0.00 0.00 0.00 68 1023.3
20260902084505 19 238 4.8 8.0 0.00 0.00 0.00 67 1023.3
20260902084005 18 232 4.8 8.0 0.00 0.00 0.00 68 1023.1
20260902083505 18 238 4.8 8.0 0.00 0.00 0.00 68 1022.9
20260902083005 18 237 3.2 6.4 0.00 0.00 0.00 68 1023.0
20260902082005 18 235 4.8 6.4 0.00 0.00 0.00 69 1022.8
20260902081506 18 236 3.2 6.4 0.00 0.00 0.00 70 1022.9
20260902081005 18 232 3.2 6.4 0.00 0.00 0.00 69 1022.8
20260902080005 18 212 1.6 4.8 0.00 0.00 0.00 70 1022.5
20260902075505 18 208 3.2 11.3 0.00 0.00 0.00 70 1022.3
20260902075005 18 219 4.8 11.3 0.00 0.00 0.00 70 1022.6
20260902074505 17 223 4.8 8.0 0.00 0.00 0.00 70 1022.6
20260902074005 18 227 6.4 8.0 0.00 0.00 0.00 69 1022.4
20260902073505 18 238 4.8 9.7 0.00 0.00 0.00 69 1022.4
20260902073007 18 238 6.4 12.9 0.00 0.00 0.00 69 1022.2
20260902072505 18 246 6.4 12.9 0.00 0.00 0.00 69 1022.0
20260902071505 18 257 1.6 6.4 0.00 0.00 0.00 71 1021.9
20260902071005 17 101 0.0 3.2 0.00 0.00 0.00 72 1021.8
20260902070506 17 87 0.0 0.0 0.00 0.00 0.00 73 1021.8
20260902070006 17 68 0.0 3.2 0.00 0.00 0.00 75 1021.6
20260902065505 17 72 0.0 3.2 0.00 0.00 0.00 76 1021.8
20260902065005 16 91 1.6 3.2 0.00 0.00 0.00 77 1021.9
20260902064005 16 92 1.6 3.2 0.00 0.00 0.00 76 1021.9
20260902063505 16 91 1.6 3.2 0.00 0.00 0.00 76 1022.0
20260902063005 16 94 0.0 3.2 0.00 0.00 0.00 76 1021.9
20260902062006 16 75 1.6 3.2 0.00 0.00 0.00 76 1022.0
20260902061505 16 70 3.2 8.0 0.00 0.00 0.00 76 1021.7
20260902061007 15 70 4.8 8.0 0.00 0.00 0.00 76 1021.7
20260902060505 15 71 3.2 8.0 0.00 0.00 0.00 77 1021.9
20260902060005 15 69 3.2 9.7 0.00 0.00 0.00 77 1021.9
20260902055505 15 66 4.8 9.7 0.00 0.00 0.00 78 1022.0
20260902054005 14 69 4.8 6.4 0.00 0.00 0.00 80 1021.9
20260902053505 14 65 4.8 9.7 0.00 0.00 0.00 80 1022.0
20260902053005 14 68 4.8 9.7 0.00 0.00 0.00 80 1022.1
20260902052505 14 72 3.2 6.4 0.00 0.00 0.00 81 1021.9
20260902052005 14 74 3.2 6.4 0.00 0.00 0.00 81 1021.8
20260902051505 13 74 3.2 6.4 0.00 0.00 0.00 81 1021.9
20260902051005 13 77 3.2 6.4 0.00 0.00 0.00 81 1021.8
20260902050008 13 76 4.8 8.0 0.00 0.00 0.00 81 1021.6
20260902045505 13 79 4.8 8.0 0.00 0.00 0.00 81 1021.7
20260902044505 13 79 4.8 6.4 0.00 0.00 0.00 80 1021.7
20260902044005 13 76 3.2 6.4 0.00 0.00 0.00 80 1021.8
20260902043506 13 70 3.2 6.4 0.00 0.00 0.00 80 1021.7
20260902042505 14 69 1.6 3.2 0.00 0.00 0.00 80 1021.7
20260902041005 14 87 3.2 4.8 0.00 0.00 0.00 79 1021.7
20260902040505 14 93 1.6 4.8 0.00 0.00 0.00 79 1021.6
20260902040007 14 90 1.6 4.8 0.00 0.00 0.00 78 1021.5
20260902035505 14 90 1.6 3.2 0.00 0.00 0.00 78 1021.6
20260902035005 14 88 1.6 4.8 0.00 0.00 0.00 78 1021.6
20260902034505 14 86 3.2 6.4 0.00 0.00 0.00 78 1021.6
20260902034005 14 86 4.8 6.4 0.00 0.00 0.00 79 1021.6
20260902033504 14 82 3.2 6.4 0.00 0.00 0.00 79 1021.5
20260902032504 14 85 3.2 6.4 0.00 0.00 0.00 79 1021.8
20260902032005 14 89 3.2 6.4 0.00 0.00 0.00 79 1021.7
20260902031506 14 95 3.2 6.4 0.00 0.00 0.00 79 1021.8
20260902031004 14 91 3.2 6.4 0.00 0.00 0.00 79 1022.1
20260902030505 14 94 3.2 6.4 0.00 0.00 0.00 79 1022.0
20260902025504 14 95 3.2 6.4 0.00 0.00 0.00 78 1022.1
20260902025006 14 92 3.2 6.4 0.00 0.00 0.00 78 1022.0
20260902024505 14 84 4.8 6.4 0.00 0.00 0.00 79 1022.3
20260902023505 14 90 3.2 4.8 0.00 0.00 0.00 79 1022.1
20260902023004 14 95 3.2 4.8 0.00 0.00 0.00 79 1022.1
20260902022506 14 93 3.2 4.8 0.00 0.00 0.00 79 1022.1
20260902022005 14 94 3.2 4.8 0.00 0.00 0.00 78 1021.9
20260902021005 14 90 3.2 4.8 0.00 0.00 0.00 77 1022.0
20260902020505 14 90 1.6 4.8 0.00 0.00 0.00 77 1021.9
20260902020006 15 88 1.6 3.2 0.00 0.00 0.00 77 1022.1
20260902015504 14 87 1.6 3.2 0.00 0.00 0.00 77 1021.9
20260902013505 15 77 1.6 3.2 0.00 0.00 0.00 76 1022.0
20260902013005 15 77 3.2 3.2 0.00 0.00 0.00 76 1021.9
20260902012505 15 79 3.2 4.8 0.00 0.00 0.00 75 1021.9
20260902012005 15 81 3.2 4.8 0.00 0.00 0.00 75 1021.9
20260902011505 15 82 3.2 4.8 0.00 0.00 0.00 75 1022.0
20260902010505 15 88 3.2 6.4 0.00 0.00 0.00 74 1022.1
20260902010005 15 87 3.2 6.4 0.00 0.00 0.00 74 1022.1
20260902005006 15 84 3.2 4.8 0.00 0.00 0.00 73 1022.4
20260902004505 15 85 3.2 4.8 0.00 0.00 0.00 73 1022.3
20260902004005 16 84 4.8 6.4 0.00 0.00 0.00 73 1022.2
20260902003504 16 81 4.8 6.4 0.00 0.00 0.00 73 1022.3
20260902003005 16 82 3.2 6.4 0.00 0.00 0.00 73 1022.3
20260902002004 16 83 3.2 4.8 0.00 0.00 0.00 73 1022.4
20260902001504 16 78 3.2 4.8 0.00 0.00 0.00 72 1022.2
20260902001005 16 68 3.2 4.8 0.00 0.00 0.00 72 1022.5
20260902000005 16 57 3.2 3.2 0.00 0.00 0.00 72 1022.4
20260901235505 16 54 3.2 4.8 0.00 0.00 0.00 72 1022.4
20260901235005 16 48 3.2 6.4 0.00 0.00 0.00 72 1022.4
20260901234504 16 47 3.2 6.4 0.00 0.00 0.00 72 1022.4
20260901234006 16 54 3.2 4.8 0.00 0.00 0.00 72 1022.4
20260901233005 16 52 3.2 6.4 0.00 0.00 0.00 72 1022.7
20260901232505 16 46 4.8 6.4 0.00 0.00 0.00 72 1022.7
20260901232004 16 45 3.2 6.4 0.00 0.00 0.00 72 1022.8
20260901231505 16 42 3.2 6.4 0.00 0.00 0.00 72 1022.6
20260901231005 16 38 3.2 6.4 0.00 0.00 0.00 72 1022.6
20260901230506 16 36 3.2 6.4 0.00 0.00 0.00 72 1022.7
20260901230005 16 44 3.2 6.4 0.00 0.00 0.00 72 1022.9
20260901225504 16 53 3.2 6.4 0.00 0.00 0.00 72 1022.7
20260901225004 16 58 3.2 6.4 0.00 0.00 0.00 72 1022.8
20260901224504 16 62 3.2 6.4 0.00 0.00 0.00 72 1022.6
20260901224004 17 60 3.2 8.0 0.00 0.00 0.00 71 1022.7
20260901223505 17 57 4.8 8.0 0.00 0.00 0.00 71 1022.9
20260901223006 17 54 3.2 8.0 0.00 0.00 0.00 70 1022.7
20260901222506 17 44 3.2 4.8 0.00 0.00 0.00 69 1022.9
20260901222005 17 41 1.6 3.2 0.00 0.00 0.00 69 1022.7
20260901221504 17 41 3.2 4.8 0.00 0.00 0.00 69 1022.6
20260901221005 17 44 1.6 4.8 0.00 0.00 0.00 65 1022.7
20260901220505 17 47 3.2 6.4 0.00 0.00 0.00 65 1022.6
20260901220006 17 43 3.2 6.4 0.00 0.00 0.00 65 1022.7
20260901215505 17 43 3.2 6.4 0.00 0.00 0.00 64 1022.7
20260901215005 17 39 4.8 8.0 0.00 0.00 0.00 64 1022.7
20260901214505 17 31 4.8 8.0 0.00 0.00 0.00 64 1022.7
20260901214005 17 23 4.8 8.0 0.00 0.00 0.00 64 1022.6
20260901213505 17 18 4.8 8.0 0.00 0.00 0.00 64 1022.7
20260901213005 17 15 4.8 8.0 0.00 0.00 0.00 64 1022.7
20260901212505 17 10 4.8 8.0 0.00 0.00 0.00 64 1022.7
20260901211505 17 13 4.8 8.0 0.00 0.00 0.00 64 1022.7
20260901210005 17 12 4.8 8.0 0.00 0.00 0.00 64 1022.6
20260901205006 17 14 4.8 9.7 0.00 0.00 0.00 64 1022.8
20260901204505 18 13 4.8 9.7 0.00 0.00 0.00 64 1022.8
20260901204006 18 16 4.8 8.0 0.00 0.00 0.00 64 1022.9
20260901203505 18 17 4.8 11.3 0.00 0.00 0.00 64 1022.8
20260901203004 18 16 4.8 11.3 0.00 0.00 0.00 63 1022.7
20260901202005 18 15 4.8 8.0 0.00 0.00 0.00 63 1022.7
20260901201504 18 15 4.8 8.0 0.00 0.00 0.00 63 1022.9
20260901201005 18 12 4.8 8.0 0.00 0.00 0.00 63 1022.8
20260901200505 18 11 4.8 6.4 0.00 0.00 0.00 63 1022.9
20260901200005 18 13 4.8 6.4 0.00 0.00 0.00 63 1022.9
20260901194504 18 7 4.8 9.7 0.00 0.00 0.00 63 1022.8
20260901194005 18 4 4.8 6.4 0.00 0.00 0.00 63 1022.8
20260901193505 18 12 4.8 6.4 0.00 0.00 0.00 63 1022.7
20260901193004 18 16 4.8 6.4 0.00 0.00 0.00 63 1022.8
20260901192505 18 25 4.8 8.0 0.00 0.00 0.00 63 1022.7
20260901191504 18 29 4.8 6.4 0.00 0.00 0.00 63 1022.6
20260901191005 19 40 4.8 8.0 0.00 0.00 0.00 63 1022.5
20260901190506 19 32 4.8 12.9 0.00 0.00 0.00 63 1022.7
20260901190005 19 27 6.4 12.9 0.00 0.00 0.00 63 1022.5
20260901185505 19 28 6.4 12.9 0.00 0.00 0.00 63 1022.5
20260901185005 19 33 6.4 12.9 0.00 0.00 0.00 63 1022.5
20260901184006 19 32 6.4 8.0 0.00 0.00 0.00 63 1022.5
20260901183505 19 43 6.4 11.3 0.00 0.00 0.00 63 1022.4
20260901183005 20 46 6.4 11.3 0.00 0.00 0.00 63 1022.4
20260901182505 20 46 4.8 8.0 0.00 0.00 0.00 64 1022.4
20260901182005 20 44 6.4 9.7 0.00 0.00 0.00 64 1022.4
20260901181504 20 38 6.4 9.7 0.00 0.00 0.00 63 1022.2
20260901181005 20 35 6.4 9.7 0.00 0.00 0.00 63 1022.2
20260901180504 20 30 4.8 9.7 0.00 0.00 0.00 63 1022.1
20260901180005 20 34 4.8 8.0 0.00 0.00 0.00 63 1022.1
20260901175505 20 35 4.8 8.0 0.00 0.00 0.00 63 1022.0
20260901175004 21 42 4.8 8.0 0.00 0.00 0.00 63 1022.1
20260901174505 21 52 3.2 8.0 0.00 0.00 0.00 61 1022.2
20260901174007 21 58 3.2 4.8 0.00 0.00 0.00 60 1022.2
20260901173504 21 55 4.8 8.0 0.00 0.00 0.00 60 1022.1
20260901173005 22 47 4.8 9.7 0.00 0.00 0.00 59 1022.0
20260901172506 22 43 4.8 9.7 0.00 0.00 0.00 58 1022.2
20260901172004 22 28 4.8 8.0 0.00 0.00 0.00 57 1022.1
20260901171505 22 14 3.2 8.0 0.00 0.00 0.00 54 1022.1
20260901170505 22 348 3.2 4.8 0.00 0.00 0.00 50 1022.1
20260901170005 22 349 3.2 4.8 0.00 0.00 0.00 50 1022.1
20260901165504 23 342 3.2 4.8 0.00 0.00 0.00 49 1022.0
20260901165005 23 341 3.2 4.8 0.00 0.00 0.00 48 1022.1
20260901164505 23 342 3.2 4.8 0.00 0.00 0.00 47 1022.2
20260901164005 24 346 3.2 4.8 0.00 0.00 0.00 45 1022.3
20260901163504 24 3 3.2 6.4 0.00 0.00 0.00 45 1022.4
20260901162004 24 13 3.2 6.4 0.00 0.00 0.00 46 1022.3
20260901161004 24 13 4.8 8.0 0.00 0.00 0.00 45 1022.4
20260901160507 24 8 3.2 8.0 0.00 0.00 0.00 45 1022.3
20260901160005 24 9 1.6 4.8 0.00 0.00 0.00 45 1022.4
20260901155505 24 15 3.2 4.8 0.00 0.00 0.00 45 1022.5
20260901155004 24 16 3.2 8.0 0.00 0.00 0.00 45 1022.4
20260901154505 24 354 4.8 8.0 0.00 0.00 0.00 45 1022.5
20260901154005 24 317 4.8 8.0 0.00 0.00 0.00 45 1022.4
20260901153504 24 222 3.2 8.0 0.00 0.00 0.00 45 1022.5
20260901153005 24 215 3.2 4.8 0.00 0.00 0.00 45 1022.6
20260901152005 24 220 3.2 8.0 0.00 0.00 0.00 45 1022.6
20260901151505 25 222 4.8 9.7 0.00 0.00 0.00 45 1022.6
20260901150505 25 242 3.2 8.0 0.00 0.00 0.00 45 1022.5
20260901145506 25 261 4.8 9.7 0.00 0.00 0.00 45 1022.6
20260901145004 24 259 4.8 9.7 0.00 0.00 0.00 45 1022.5
20260901144004 24 258 6.4 9.7 0.00 0.00 0.00 45 1022.5
20260901143005 24 199 6.4 12.9 0.00 0.00 0.00 45 1022.6
20260901142504 24 165 6.4 12.9 0.00 0.00 0.00 45 1022.6
20260901141005 24 223 3.2 9.7 0.00 0.00 0.00 45 1022.6
20260901140505 24 142 3.2 9.7 0.00 0.00 0.00 45 1022.8
20260901140005 23 357 4.8 9.7 0.00 0.00 0.00 45 1022.8
20260901135504 24 241 3.2 8.0 0.00 0.00 0.00 45 1022.8
20260901135005 24 242 4.8 12.9 0.00 0.00 0.00 45 1022.9
20260901134505 24 228 4.8 12.9 0.00 0.00 0.00 45 1022.7
20260901134004 24 233 4.8 9.7 0.00 0.00 0.00 45 1023.0
20260901133505 24 261 6.4 14.5 0.00 0.00 0.00 45 1022.7
20260901133005 24 262 6.4 14.5 0.00 0.00 0.00 45 1023.0
20260901132504 24 277 4.8 8.0 0.00 0.00 0.00 45 1023.0
20260901132006 24 267 4.8 11.3 0.00 0.00 0.00 45 1023.0
20260901131504 24 256 6.4 12.9 0.00 0.00 0.00 45 1023.1
20260901131005 24 257 6.4 14.5 0.00 0.00 0.00 45 1023.0
20260901125505 25 241 6.4 17.7 0.00 0.00 0.00 45 1023.0
20260901125004 25 244 4.8 12.9 0.00 0.00 0.00 45 1023.0
20260901124505 24 246 8.0 12.9 0.00 0.00 0.00 45 1023.2
20260901123504 24 231 8.0 14.5 0.00 0.00 0.00 45 1023.2
20260901123005 24 208 8.0 14.5 0.00 0.00 0.00 46 1023.3
20260901122006 24 210 4.8 11.3 0.00 0.00 0.00 46 1023.3
20260901121505 23 219 4.8 11.3 0.00 0.00 0.00 46 1023.4
20260901121004 23 272 4.8 11.3 0.00 0.00 0.00 47 1023.2
20260901120505 23 275 4.8 11.3 0.00 0.00 0.00 46 1023.5
20260901120005 23 264 6.4 11.3 0.00 0.00 0.00 46 1023.4
20260901115504 23 255 4.8 11.3 0.00 0.00 0.00 46 1023.4
20260901115005 23 252 4.8 20.9 0.00 0.00 0.00 46 1023.4
20260901114505 23 249 9.7 20.9 0.00 0.00 0.00 46 1023.4
20260901114004 24 246 11.3 20.9 0.00 0.00 0.00 46 1023.5
20260901113504 24 229 9.7 20.9 0.00 0.00 0.00 46 1023.6
20260901113004 24 232 8.0 19.3 0.00 0.00 0.00 46 1023.4
20260901112504 24 240 4.8 9.7 0.00 0.00 0.00 47 1023.3
20260901112006 23 223 6.4 16.1 0.00 0.00 0.00 46 1023.7
20260901111504 24 218 6.4 16.1 0.00 0.00 0.00 46 1023.5
20260901110504 23 214 3.2 8.0 0.00 0.00 0.00 46 1023.4
20260901110005 23 223 3.2 6.4 0.00 0.00 0.00 46 1023.5
20260901105504 23 219 4.8 12.9 0.00 0.00 0.00 47 1023.5
20260901104504 23 231 4.8 9.7 0.00 0.00 0.00 47 1023.8
20260901103504 23 231 8.0 12.9 0.00 0.00 0.00 46 1023.8
20260901103005 23 226 6.4 12.9 0.00 0.00 0.00 47 1024.0
20260901102504 22 226 4.8 12.9 0.00 0.00 0.00 49 1023.9
20260901102004 22 208 3.2 11.3 0.00 0.00 0.00 50 1023.9
20260901101004 22 225 3.2 9.7 0.00 0.00 0.00 50 1024.1
20260901100504 22 212 4.8 9.7 0.00 0.00 0.00 49 1024.1
20260901100004 22 206 4.8 9.7 0.00 0.00 0.00 49 1024.1
20260901095506 22 209 4.8 9.7 0.00 0.00 0.00 49 1024.0
20260901095005 22 212 4.8 9.7 0.00 0.00 0.00 50 1024.1
20260901094505 22 215 4.8 9.7 0.00 0.00 0.00 50 1024.1